TimeEST,TemperatureF,Dew PointF,Humidity,Sea Level PressureIn,VisibilityMPH,Wind Direction,Wind SpeedMPH,Gust SpeedMPH,PrecipitationIn,Events,Conditions,WindDirDegrees,DateUTC
12:55 AM,1.9,-2.0,83,30.03,10.0,South,4.6,-,N/A,,Overcast,170,2013-12-31 05:55:00
1:55 AM,1.9,-2.0,83,30.01,8.0,Calm,Calm,-,N/A,,Overcast,0,2013-12-31 06:55:00
2:28 AM,1.9,-2.0,83,29.95,2.5,Calm,Calm,-,0.00,Snow,Light Snow,0,2013-12-31 07:28:00
2:39 AM,1.9,-2.0,83,29.94,1.2,Calm,Calm,-,0.01,Snow,Light Snow,0,2013-12-31 07:39:00
2:52 AM,1.4,-2.2,85,29.94,3.0,East,3.5,-,0.01,Snow,Light Snow,100,2013-12-31 07:52:00
2:55 AM,1.9,-2.0,83,29.99,4.0,ESE,3.5,-,0.01,Snow,Light Snow,110,2013-12-31 07:55:00
3:27 AM,1.9,-2.9,80,29.94,2.0,East,3.5,-,0.00,Snow,Light Snow,90,2013-12-31 08:27:00
3:35 AM,1.9,-2.9,80,29.94,1.8,East,3.5,-,0.00,Snow,Light Snow,90,2013-12-31 08:35:00
3:42 AM,1.0,-2.9,83,29.94,2.5,ENE,3.5,-,0.00,Snow,Light Snow,60,2013-12-31 08:42:00
3:55 AM,1.0,-2.9,83,29.98,6.0,East,4.6,-,0.00,,Overcast,90,2013-12-31 08:55:00
4:55 AM,1.0,-2.0,87,29.97,10.0,Calm,Calm,-,N/A,,Overcast,0,2013-12-31 09:55:00
5:28 AM,-0.0,-4.0,83,29.91,8.0,ENE,3.5,-,N/A,,Scattered Clouds,70,2013-12-31 10:28:00
5:43 AM,1.0,-4.0,79,29.91,10.0,ENE,4.6,-,N/A,,Mostly Cloudy,60,2013-12-31 10:43:00
5:55 AM,1.0,-2.9,83,29.96,10.0,ENE,3.5,-,N/A,,Overcast,60,2013-12-31 10:55:00
6:51 AM,-0.4,-4.0,85,29.92,10.0,ENE,4.6,-,N/A,,Scattered Clouds,60,2013-12-31 11:51:00
6:55 AM,-0.0,-4.0,83,29.98,10.0,NE,4.6,-,N/A,,Scattered Clouds,50,2013-12-31 11:55:00
7:39 AM,-0.0,-4.0,83,29.93,9.0,East,4.6,-,0.00,Snow,Light Snow,80,2013-12-31 12:39:00
7:45 AM,-0.0,-5.1,79,29.93,9.0,ENE,3.5,-,0.00,,Scattered Clouds,70,2013-12-31 12:45:00
7:55 AM,-0.0,-5.1,79,29.99,10.0,Calm,Calm,-,0.00,,Scattered Clouds,0,2013-12-31 12:55:00
8:10 AM,-0.9,-6.0,79,29.94,5.0,NE,3.5,-,N/A,,Haze,40,2013-12-31 13:10:00
8:23 AM,-0.0,-5.1,79,29.94,10.0,Calm,Calm,-,N/A,,Mostly Cloudy,0,2013-12-31 13:23:00
8:55 AM,-2.0,-6.0,83,30.01,9.0,Calm,Calm,-,N/A,,Overcast,0,2013-12-31 13:55:00
9:10 AM,-2.9,-7.1,82,29.96,3.0,Calm,Calm,-,0.00,Snow,Light Snow,0,2013-12-31 14:10:00
9:32 AM,-0.9,-2.9,91,29.96,7.0,Calm,Calm,-,0.00,,Scattered Clouds,0,2013-12-31 14:32:00
9:55 AM,1.0,-2.0,87,30.01,10.0,East,3.5,-,0.00,,Clear,90,2013-12-31 14:55:00
10:55 AM,3.9,-0.9,80,30.03,10.0,Calm,Calm,-,N/A,,Clear,0,2013-12-31 15:55:00
11:46 AM,5.0,-0.0,80,29.98,9.0,Calm,Calm,-,N/A,,Mostly Cloudy,0,2013-12-31 16:46:00
11:55 AM,5.0,-0.0,80,30.03,6.0,SSW,3.5,-,N/A,,Haze,200,2013-12-31 16:55:00
12:55 PM,9.0,1.9,73,30.01,2.0,Calm,Calm,-,0.00,Snow,Light Snow,0,2013-12-31 17:55:00
1:02 PM,9.0,1.9,73,29.97,1.5,Calm,Calm,-,0.00,Snow,Light Snow,0,2013-12-31 18:02:00
1:11 PM,8.1,1.9,76,29.97,3.0,Calm,Calm,-,0.00,Snow,Light Snow,0,2013-12-31 18:11:00
1:55 PM,12.0,3.0,67,30.00,7.0,WSW,11.5,-,0.00,Snow,Light Snow,250,2013-12-31 18:55:00
2:01 PM,12.0,3.0,67,29.95,2.5,WSW,15.0,-,0.00,Snow,Light Snow,240,2013-12-31 19:01:00
2:09 PM,10.9,3.9,73,29.95,1.0,WSW,13.8,24.2,0.00,Snow,Light Snow,250,2013-12-31 19:09:00
2:28 PM,12.0,3.0,67,29.96,2.5,WSW,19.6,28.8,0.00,Snow,Blowing Snow,250,2013-12-31 19:28:00
2:41 PM,12.0,3.0,67,29.96,3.0,WSW,19.6,26.5,0.00,Snow,Light Snow,250,2013-12-31 19:41:00
2:44 PM,12.0,3.0,67,29.96,1.8,West,17.3,27.6,0.00,Snow,Light Snow,260,2013-12-31 19:44:00
2:53 PM,12.2,5.0,73,29.97,0.5,West,21.9,31.1,0.00,Snow,Snow,260,2013-12-31 19:53:00
2:55 PM,12.0,3.9,70,30.02,0.8,WSW,19.6,31.1,0.00,Snow,Light Snow,250,2013-12-31 19:55:00
3:10 PM,10.9,7.0,84,29.98,0.2,West,15.0,23.0,0.01,Fog-Snow,Snow,280,2013-12-31 20:10:00
3:18 PM,10.9,3.9,73,29.98,1.0,West,19.6,24.2,0.01,Snow,Light Snow,280,2013-12-31 20:18:00
3:24 PM,10.9,1.9,67,29.98,2.5,West,13.8,25.3,0.01,Snow,Light Snow,280,2013-12-31 20:24:00
3:35 PM,10.9,3.0,70,29.98,4.0,West,9.2,-,0.01,Snow,Light Snow,280,2013-12-31 20:35:00
3:48 PM,10.0,3.0,73,29.99,1.5,West,9.2,-,0.01,Snow,Light Snow,270,2013-12-31 20:48:00
3:52 PM,10.4,3.2,73,29.99,0.8,West,11.5,-,0.01,Snow,Light Snow,270,2013-12-31 20:52:00
3:55 PM,10.0,5.0,80,30.04,0.5,West,10.4,-,0.01,Snow,Snow,280,2013-12-31 20:55:00
4:40 PM,8.1,3.9,83,30.01,0.8,North,6.9,-,0.02,Snow,Light Snow,350,2013-12-31 21:40:00
4:53 PM,8.6,3.2,79,30.03,0.8,NNW,8.1,-,0.03,Snow,Light Snow,340,2013-12-31 21:53:00
4:55 PM,8.1,3.9,83,30.08,0.5,Variable,5.8,-,0.03,Fog-Snow,Snow,0,2013-12-31 21:55:00
5:39 PM,7.0,3.0,84,30.06,0.2,NNW,3.5,-,0.08,Fog-Snow,Heavy Snow,330,2013-12-31 22:39:00
5:55 PM,7.0,3.9,87,30.12,0.5,Variable,3.5,-,0.10,Fog-Snow,Snow,0,2013-12-31 22:55:00
6:26 PM,7.0,3.0,84,30.08,0.2,NW,5.8,-,0.06,Fog-Snow,Heavy Snow,310,2013-12-31 23:26:00
6:35 PM,7.0,3.0,84,30.08,0.8,NW,4.6,-,0.06,Snow,Light Snow,320,2013-12-31 23:35:00
6:55 PM,7.0,3.0,84,30.14,0.5,Calm,Calm,-,0.08,Fog-Snow,Snow,0,2013-12-31 23:55:00
7:55 PM,7.0,3.9,87,30.17,0.2,West,15.0,-,0.05,Fog-Snow,Heavy Snow,270,2014-01-01 00:55:00
8:55 PM,6.1,1.9,83,30.18,0.8,WSW,16.1,23.0,0.05,Snow,Light Snow,250,2014-01-01 01:55:00
9:14 PM,6.1,1.0,80,30.13,0.8,West,15.0,21.9,0.01,Snow,Light Snow,260,2014-01-01 02:14:00
9:24 PM,6.1,1.9,83,30.13,0.2,WSW,13.8,21.9,0.02,Fog-Snow,Snow,250,2014-01-01 02:24:00
9:55 PM,5.0,1.9,87,30.19,0.2,West,16.1,20.7,0.04,Fog-Snow,Snow,260,2014-01-01 02:55:00
10:44 PM,5.0,1.0,84,30.16,1.0,West,15.0,-,0.02,Snow,Light Snow,260,2014-01-01 03:44:00
10:53 PM,3.2,-0.4,85,30.17,0.8,NW,9.2,19.6,0.02,Snow,Light Snow,310,2014-01-01 03:53:00
10:55 PM,3.9,-0.0,84,30.23,0.8,WNW,10.4,19.6,0.02,Snow,Light Snow,300,2014-01-01 03:55:00
11:24 PM,5.0,-0.0,80,30.19,1.0,Variable,3.5,-,0.01,Snow,Light Snow,0,2014-01-01 04:24:00
11:32 PM,3.9,-0.0,84,30.20,1.0,Variable,5.8,-,0.01,Snow,Light Snow,0,2014-01-01 04:32:00
11:55 PM,3.9,-0.0,84,30.26,1.5,East,3.5,-,0.02,Snow,Light Snow,80,2014-01-01 04:55:00